Location: Eyeline Observatory
(43.2182°N, 78.8632°W)
Time: 20:09:14
(UTC-05:00)

Vanguard 2 - Pass Details

Date: 24 January 2018
Orbit: 553 x 2939 km, 32.9° (Epoch: 20 February)

Event Time Altitude Azimuth Distance (km) Brightness Sun altitude
Rises 06:50:40 0° 268° (W) 4,659 - -8.9°
Exits shadow 06:52:21 - 264° (W) 4,239 10.7 -8.6°
Reaches altitude 10° 06:53:32 10° 261° (W) 3,966 10.6 -8.4°
Maximum altitude 07:03:49 42° 195° (SSW) 2,976 10.6 -6.7°
Drops below altitude 10° 07:18:39 10° 133° (SE) 5,636 13.4 -4.1°
Sets 07:23:42 0° 127° (SE) 6,761 14.3 -3.3°
